Regional Weather Roundup
Issued by NWS

Home | Current Version | Previous Version | Text Only | Print | Product List | Glossary On
Versions: 1 2 3 4 5 6 7 8 9 10 11 12 13 14 15 16 17 18 19 20 21 22 23 24 25 26 27 28 29 30 31 32 33 34 35 36 37 38 39 40 41 42 43 44 45 46 47 48 49 50
000
ASUS43 KLSX 212010
RWRMO

WEATHER SUMMARY FOR MISSOURI
NATIONAL WEATHER SERVICE SPRINGFIELD MO
200 PM CST TUE FEB 21 2017

NOTE: "FAIR" INDICATES FEW OR NO CLOUDS BELOW 12,000 FEET WITH NO
       SIGNIFICANT WEATHER AND/OR OBSTRUCTIONS TO VISIBILITY.
       CURRENT SKY AND/OR WEATHER CONDITIONS ARE NOT AVAILABLE FOR
       CHILLICOTHE AND FARMINGTON.

MOZ001>031-035>038-043-044-053-054-212100-
...NORTHERN AND WESTERN MISSOURI...

CITY           SKY/WX    TMP DP  RH WIND       PRES   REMARKS
KANSAS CTY INT SUNNY     69  43  38 CALM      29.93F
KANSAS C DTWN  SUNNY     71  45  39 CALM      29.91F
LEE`S SUMMIT   SUNNY     69  50  50 N6        29.92F
ST JOSEPH      SUNNY     67  39  35 W6        29.94F
CHILLICOTHE      N/A     69  45  41 CALM      29.91F
KIRKSVILLE     SUNNY     68  48  48 CALM      29.91F

$$
MOZ066>068-077>081-088>096-101>105-212100-
...SOUTHWEST MISSOURI...

CITY           SKY/WX    TMP DP  RH WIND       PRES   REMARKS
SPRINGFIELD    CLOUDY    60  58  92 N10       29.90F FOG
JOPLIN         SUNNY     67  55  65 N16       29.92F
BRANSON        PTSUNNY   57  57 100 N7        29.89S

$$
MOZ032>034-039>042-045>050-055>058-069>072-212100-
...CENTRAL MISSOURI...

CITY           SKY/WX    TMP DP  RH WIND       PRES   REMARKS
COLUMBIA       MOSUNNY   67  58  72 E8        29.91F
JEFFERSON CITY CLOUDY    65  57  75 NE6       29.90F
ROLLA          CLOUDY    61  59  93 NE6       29.89F
SEDALIA        MOSUNNY   72  53  51 N9        29.92F
WHITEMAN AFB   MOSUNNY   70  53  55 CALM      29.90F
WARRENSBURG    SUNNY     68  50  52 NW8       29.90F
OSAGE BEACH    CLOUDY    65  57  75 NE9       29.91F

$$
MOZ051-052-059>065-212100-
...EAST CENTRAL MISSOURI...

CITY           SKY/WX    TMP DP  RH WIND       PRES   REMARKS
ST LOUIS INTL  CLOUDY    65  58  78 E9        29.90F
SPIRIT OF STL  CLOUDY    65  60  84 E3        29.89F
ST CHARLES     CLOUDY    63  60  90 N6        29.90S

$$
MOZ072>076-082>087-097>100-106>115-212100-
...SOUTH CENTRAL AND SOUTHEAST MISSOURI...

CITY           SKY/WX    TMP DP  RH WIND       PRES   REMARKS
CAPE GIRARDEAU CLOUDY    64  54  69 SE12      29.89F
FARMINGTON     CLOUDY    61  55  81 NW8       29.86F
POPLAR BLUFF   CLOUDY    60  58  92 E5        29.87F
WEST PLAINS    CLOUDY    60  56  86 E9        29.88S

$$



USA.gov is the U.S. government's official web portal to all federal, state and local government web resources and services.